Home   Weather   Campos   Past weeks

Flag for Brazil Past Weather in Campos, Rio de Janeiro, Brazil — Yesterday and Last 2 Weeks

Now
81 °F

Sunny.


Feels Like: 85 °F
Forecast: 69 / 90 °F
Wind: 17 mph from South

Location: Rio De Janeiro Airport

Current Time: Dec 7, 2016 at 6:31:13 pm

Latest Report: Dec 7, 2016 at 5:00 pm


Visibility: 10 mi

Pressure: 29.77 "Hg

Humidity: 74%

Dew Point: 72 °F

Location of CamposLocation

Past Weather in Campos — Graph

°F

Campos Temperature Yesterday

Maximum temperature yesterday: 88 °F (at 11:00 am)
Minimum temperature yesterday: 72 °F (at 2:00 am)
Average temperature yesterday: 78 °F

High & Low Weather Summary for the Past Weeks

 TemperatureHumidityPressure
High93 °F (Dec 4, 2:00 pm)94% (Nov 26, 11:00 pm)30.15 "Hg (Nov 26, 11:00 pm)
Low70 °F (Nov 30, 6:00 am)43% (Dec 6, 11:00 am)29.56 "Hg (Dec 4, 3:00 pm)
Average78 °F75%29.91 "Hg
* Reported Nov 22 5:00 pm — Dec 7 5:00 pm, Campos, Weather by CustomWeather, © 2016

Note: Actual official high and low records may vary slightly from our data, if they occured in-between our weather recording intervals... More about our weather records

Advertising

Campos Weather History for the Previous 24 Hours

Scroll right to see more
 ConditionsComfort  
Time TempWeatherWind HumidityBarometerVisibility
5:00 pm
Wed, Dec 7
81 °FSunny.17 mph74%29.77 "Hg10 mi
4:00 pm82 °FPassing clouds.15 mph66%29.77 "HgN/A
3:00 pm82 °FPassing clouds.15 mph70%29.80 "HgN/A
2:00 pm82 °FPassing clouds.16 mph66%29.83 "HgN/A
1:00 pm82 °FPassing clouds.14 mph66%29.83 "HgN/A
12:00 pm82 °FSunny.14 mph66%29.86 "Hg10 mi
11:00 am82 °FSunny.10 mph66%29.86 "Hg10 mi
10:00 am81 °FSunny.3 mph66%29.86 "Hg10 mi
9:00 am79 °FSunny.3 mph70%29.86 "Hg10 mi
8:00 am75 °FPassing clouds.6 mph78%29.86 "HgN/A
7:00 am73 °FPassing clouds.2 mph83%29.86 "HgN/A
6:00 am70 °FSunny.2 mph94%29.83 "Hg10 mi
4:00 am72 °FPassing clouds.5 mph88%29.80 "HgN/A
3:00 am72 °FClear.5 mph88%29.83 "Hg10 mi
2:00 am72 °FClear.3 mph78%29.83 "Hg10 mi
1:00 am72 °FClear.3 mph78%29.86 "Hg10 mi
12:00 am72 °FClear.5 mph83%29.86 "Hg10 mi
11:00 pm
Tue, Dec 6
73 °FClear.3 mph78%29.89 "Hg10 mi
10:00 pm73 °FClear.7 mph78%29.86 "Hg10 mi
9:00 pm73 °FClear.8 mph78%29.86 "Hg10 mi
8:00 pm75 °FClear.12 mph74%29.83 "Hg10 mi
7:00 pm77 °FSunny.13 mph69%29.83 "Hg10 mi
6:00 pm81 °FSunny.15 mph58%29.80 "Hg10 mi
Weather by CustomWeather, © 2016

See weather overviewHow to use our weather pages